Total_Precipitation_Accumulation
1.48 1.34 1.14 1.04 0.97 0.87 0.86 0.87 0.81 0.75 0.69 0.63 0.57 0.48 0.43 0.38 0.36 0.34 0.31 0.31 0.43 0.66 0.87 1.05 1.10 1.04 1.04 1.00 0.85 0.79 0.75 0.74 0.74 0.73 0.71 0.66 0.65 0.64 0.67 0.68 0.67 0.67 0.68
1.67 1.60 1.46 1.30 1.19 1.08 0.97 0.93 0.85 0.81 0.77 0.70 0.62 0.54 0.51 0.45 0.40 0.38 0.32 0.27 0.32 0.46 0.72 1.01 1.28 1.38 1.37 1.35 1.19 1.07 0.97 0.88 0.86 0.82 0.80 0.77 0.73 0.71 0.72 0.75 0.74 0.76 0.79
1.80 1.81 1.69 1.54 1.33 1.29 1.27 1.20 1.05 0.94 0.86 0.78 0.70 0.64 0.60 0.55 0.47 0.45 0.41 0.35 0.31 0.34 0.51 0.79 1.11 1.30 1.38 1.50 1.46 1.34 1.19 1.04 0.97 0.92 0.89 0.87 0.83 0.79 0.79 0.82 0.86 0.89 0.91
1.85 1.92 1.82 1.72 1.63 1.48 1.40 1.37 1.26 1.12 1.01 0.93 0.82 0.76 0.73 0.67 0.57 0.48 0.44 0.43 0.42 0.37 0.41 0.59 0.80 0.98 1.13 1.29 1.47 1.54 1.48 1.28 1.10 1.00 0.95 0.94 0.94 0.94 0.94 0.95 0.95 0.97 0.98
2.09 1.99 1.87 1.77 1.83 1.77 1.56 1.47 1.39 1.23 1.10 0.99 0.91 0.86 0.81 0.76 0.70 0.62 0.52 0.43 0.40 0.41 0.43 0.52 0.62 0.67 0.79 0.95 1.23 1.49 1.54 1.49 1.31 1.14 1.05 1.00 0.99 1.04 1.10 1.14 1.11 1.07 1.08
2.28 2.27 2.09 2.02 1.99 1.97 1.81 1.62 1.49 1.35 1.19 1.15 1.06 0.97 0.93 0.92 0.83 0.74 0.67 0.57 0.49 0.42 0.42 0.47 0.54 0.55 0.59 0.71 0.89 1.16 1.36 1.46 1.44 1.37 1.27 1.23 1.21 1.22 1.29 1.32 1.31 1.31 1.32
2.33 2.38 2.31 2.26 2.17 1.98 1.89 1.80 1.67 1.51 1.35 1.33 1.31 1.13 0.99 0.96 0.92 0.83 0.76 0.67 0.60 0.55 0.52 0.52 0.56 0.56 0.55 0.61 0.68 0.82 0.99 1.16 1.32 1.40 1.38 1.36 1.38 1.40 1.42 1.47 1.49 1.49 1.54
2.48 2.41 2.34 2.36 2.38 2.21 2.04 1.92 1.87 1.71 1.52 1.47 1.46 1.43 1.21 1.05 0.92 0.80 0.77 0.70 0.63 0.62 0.63 0.64 0.65 0.65 0.62 0.60 0.60 0.65 0.72 0.92 1.23 1.51 1.60 1.57 1.61 1.62 1.63 1.68 1.76 1.81 1.85
2.68 2.45 2.37 2.38 2.43 2.41 2.32 2.22 2.16 2.01 1.82 1.70 1.57 1.65 1.45 1.12 0.90 0.82 0.78 0.73 0.69 0.66 0.66 0.70 0.73 0.73 0.69 0.65 0.64 0.65 0.72 0.84 1.15 1.53 1.77 1.86 1.89 1.89 1.97 2.05 2.13 2.21 2.20
2.81 2.65 2.51 2.42 2.41 2.40 2.37 2.38 2.38 2.31 2.19 2.03 1.84 1.62 1.45 1.22 1.09 0.92 0.79 0.76 0.77 0.74 0.74 0.74 0.77 0.79 0.78 0.73 0.73 0.79 0.85 0.93 1.12 1.50 1.88 2.14 2.32 2.45 2.51 2.58 2.63 2.66 2.57
2.86 2.73 2.59 2.48 2.38 2.34 2.34 2.36 2.35 2.38 2.30 2.14 1.97 1.80 1.64 1.37 1.16 1.08 0.88 0.74 0.73 0.71 0.71 0.72 0.71 0.70 0.74 0.77 0.80 0.93 1.05 1.10 1.25 1.54 1.99 2.41 2.68 2.99 3.19 3.25 3.23 3.17 3.07
2.76 2.70 2.61 2.47 2.35 2.32 2.28 2.31 2.31 2.34 2.36 2.20 2.03 1.86 1.74 1.57 1.35 1.25 1.13 0.91 0.85 0.77 0.72 0.71 0.75 0.77 0.79 0.82 0.89 1.09 1.15 1.22 1.38 1.66 2.07 2.42 2.68 2.97 3.22 3.48 3.55 3.45 3.37
2.58 2.40 2.40 2.39 2.29 2.21 2.29 2.36 2.32 2.21 2.21 2.18 2.10 1.96 1.83 1.62 1.45 1.46 1.46 1.30 1.13 0.93 0.86 0.83 0.81 0.86 0.93 0.99 1.04 1.20 1.18 1.24 1.33 1.51 1.85 2.17 2.31 2.45 2.66 3.05 3.40 3.49 3.41
2.57 2.42 2.32 2.34 2.37 2.27 2.24 2.32 2.31 2.17 2.10 2.06 2.00 1.98 1.93 1.76 1.62 1.58 1.62 1.72 1.66 1.37 1.16 1.04 0.99 1.03 1.07 1.12 1.22 1.33 1.21 1.34 1.36 1.40 1.56 1.77 1.84 1.86 1.92 2.12 2.48 2.78 3.00
2.41 2.41 2.33 2.28 2.28 2.31 2.29 2.30 2.27 2.12 2.03 2.00 1.91 1.86 1.80 1.70 1.66 1.66 1.72 1.85 2.05 1.92 1.52 1.21 1.16 1.17 1.21 1.20 1.26 1.15 1.04 1.22 1.28 1.28 1.32 1.40 1.43 1.40 1.40 1.52 1.67 1.84 2.03
2.03 2.16 2.22 2.15 2.12 2.12 2.14 2.20 2.20 2.10 2.00 1.92 1.87 1.84 1.76 1.65 1.62 1.64 1.68 1.73 1.86 1.99 1.78 1.30 1.12 1.07 1.11 1.11 1.19 1.02 0.93 1.11 1.07 1.08 1.15 1.21 1.23 1.19 1.19 1.26 1.32 1.38 1.42
1.80 1.87 1.95 1.95 1.95 1.96 1.94 1.98 1.97 1.95 1.92 1.81 1.75 1.75 1.68 1.59 1.57 1.55 1.56 1.60 1.63 1.68 1.67 1.28 1.02 0.97 0.99 0.96 0.96 0.88 0.82 0.83 0.81 0.93 0.95 0.99 1.04 1.05 1.09 1.13 1.17 1.21 1.25
1.55 1.64 1.70 1.73 1.74 1.72 1.71 1.70 1.69 1.65 1.67 1.64 1.57 1.57 1.55 1.51 1.48 1.43 1.46 1.44 1.42 1.41 1.43 1.28 1.02 0.92 0.86 0.79 0.74 0.70 0.67 0.67 0.66 0.79 0.80 0.81 0.86 0.91 0.95 0.97 1.04 1.08 1.11
1.34 1.42 1.50 1.53 1.55 1.55 1.50 1.45 1.42 1.39 1.34 1.34 1.34 1.35 1.36 1.44 1.49 1.45 1.41 1.34 1.26 1.24 1.25 1.22 1.02 0.86 0.80 0.75 0.73 0.68 0.60 0.57 0.55 0.63 0.68 0.68 0.71 0.78 0.86 0.91 0.91 0.94 0.94
1.29 1.29 1.33 1.37 1.40 1.44 1.47 1.40 1.36 1.36 1.31 1.25 1.24 1.30 1.33 1.37 1.39 1.37 1.34 1.28 1.25 1.27 1.24 1.25 1.16 1.00 0.90 0.83 0.82 0.78 0.70 0.61 0.58 0.56 0.65 0.69 0.72 0.76 0.78 0.80 0.77 0.73 0.73
1.37 1.30 1.32 1.34 1.37 1.42 1.46 1.51 1.51 1.51 1.53 1.52 1.44 1.38 1.35 1.41 1.42 1.39 1.34 1.27 1.26 1.32 1.36 1.38 1.29 1.11 0.96 0.90 0.88 0.80 0.80 0.76 0.72 0.66 0.67 0.64 0.64 0.62 0.63 0.68 0.74 0.75 0.72
1.54 1.43 1.42 1.44 1.46 1.49 1.72 1.72 1.61 1.56 1.58 1.55 1.49 1.35 1.27 1.30 1.27 1.33 1.34 1.31 1.33 1.41 1.49 1.48 1.33 1.10 0.85 0.76 0.79 0.88 0.98 1.08 1.00 0.70 0.67 0.66 0.62 0.65 0.61 0.59 0.69 0.74 0.79
1.62 1.61 1.59 1.62 1.63 1.68 1.78 1.65 1.63 1.48 1.44 1.37 1.31 1.27 1.20 1.15 1.19 1.11 1.21 1.33 1.38 1.44 1.41 1.31 1.19 0.95 0.81 0.74 0.89 1.10 1.11 1.09 0.89 0.65 0.75 0.80 0.68 0.67 0.61 0.65 0.77 0.75 0.76
1.75 1.77 1.77 1.78 1.74 1.72 1.72 1.55 1.48 1.32 1.27 1.22 1.15 1.13 1.10 1.08 1.07 1.10 1.16 1.25 1.14 1.08 1.05 0.98 0.93 0.88 0.84 0.85 1.02 1.20 1.21 1.18 1.00 0.84 0.87 1.00 0.79 0.71 0.62 0.63 0.75 0.75 0.77
1.83 1.84 1.78 1.69 1.59 1.53 1.52 1.39 1.33 1.17 1.14 1.09 1.02 1.00 1.04 1.00 1.12 1.29 1.29 1.23 1.06 0.96 0.99 1.02 1.03 1.01 1.05 1.08 1.11 1.29 1.44 1.53 1.34 1.00 0.87 0.96 0.83 0.77 0.75 0.69 0.68 0.76 0.76
1.67 1.62 1.57 1.49 1.37 1.26 1.30 1.27 1.24 1.08 1.05 0.98 0.93 0.91 1.01 1.01 1.18 1.33 1.19 1.12 1.05 0.95 0.94 0.93 0.92 0.92 0.89 0.93 1.09 1.16 1.47 1.84 1.60 1.23 0.83 0.96 0.95 1.02 1.20 0.83 0.69 0.73 0.77